Location: ??????
(33.3472°N, 35.4764°E)
Time: 07:21:15
(UTC+00:00)

ADEOS - Pass Details

Date: 21 August 2019
Orbit: 792 x 795 km, 98.8° (Epoch: 16 September)

Event Time Altitude Azimuth Distance (km) Brightness Sun altitude
Rises 01:54:33 0° 2° (N) 3,296 7.2 -14.5°
Reaches altitude 10° 01:57:03 10° 353° (N) 2,363 6.3 -14.0°
Maximum altitude 02:01:42 34° 290° (WNW) 1,287 4.3 -13.2°
Enters shadow 02:05:04 17° 235° (SW) 1,928 4.9 -12.5°
